Location: Estes Par
(40.3770°N, 105.5210°W)
Time: 17:52:34
(UTC-06:00)

Envisat - Pass Details

Date: 12 October 2017
Orbit: 764 x 766 km, 98.2° (Epoch: 18 October)

Event Time Altitude Azimuth Distance (km) Brightness Sun altitude
Exits shadow 21:14:11 43° 311° (NW) 1,062 4.0 -32.4°
Drops below altitude 10° 21:17:50 10° 339° (NNW) 2,305 5.9 -33.1°
Sets 21:20:12 0° 343° (NNW) 3,235 6.7 -33.5°
